Weatherford, OK

3:20 AM CST on January 21, 2017 (GMT -0600)
Weatherford

Weather History for KOJA - June, 2013

Change the Weather History Date:

Wednesday, June 12, 2013

  Actual Average (KJWG) Record (KJWG)
Temperature  
Mean Temperature 86 °F -  
Max Temperature 98 °F 88 °F 98 °F (2013)
Min Temperature 73 °F 63 °F 55 °F (1969)
Cooling Degree Days 20    
Growing Degree Days 36 (Base 50)    
Moisture  
Dew Point 65 °F    
Average Humidity 53    
Maximum Humidity 74    
Minimum Humidity 30    
Precipitation  
Precipitation 0.00 in - - ()
Sea Level Pressure  
Sea Level Pressure 29.94 in    
Wind  
Wind Speed 13 mph (SSW)    
Max Wind Speed 23 mph    
Max Gust Speed 31 mph    
Visibility 10 miles    
Events      
Averages and records for this station are not official NWS values.
T = Trace of Precipitation, MM = Missing Value Source: NWS Daily Summary

Daily Weather History Graph

Daily Weather History Graph

Search for Another Location

Airport or City:

Trip Planner

Search our weather history database for the weather conditions in past years. The results will help you decide how hot, cold, wet, or windy it might be!

Date:

Astronomy

Jun. 12, 2013 Rise Set
Actual Time 6:18 AM CDT 8:50 PM CDT
Civil Twilight 5:48 AM CDT 9:20 PM CDT
Nautical Twilight 5:11 AM CDT 9:57 PM CDT
Astronomical Twilight 4:30 AM CDT 10:38 PM CDT
Moon 9:53 AM CDT (6/12) 11:34 PM CDT (6/12)
Length of Visible Light 15h 31m
Length of Day
14h 32m
Waxing Crescent, 14% of the Moon is Illuminated
Jun 12
Waxing Crescent
Jun 16
First Quarter
Jun 23
Full
Jun 29
Last Quarter
Jul 8
New

Hourly Weather History & Observations

Time (CDT) Temp. Heat Index Dew Point Humidity Pressure Visibility Wind Dir Wind Speed Gust Speed Precip Events Conditions
12:15 AM 78.8 °F - 68.0 °F 69% 29.88 in 10.0 mi South 16.1 mph 23.0 mph N/A   Clear
12:35 AM 78.8 °F - 68.0 °F 69% 29.88 in 10.0 mi South 13.8 mph 23.0 mph N/A   Clear
12:55 AM 77.0 °F - 68.0 °F 74% 29.89 in 10.0 mi South 15.0 mph 18.4 mph N/A   Clear
1:15 AM 77.0 °F - 68.0 °F 74% 29.88 in 10.0 mi South 16.1 mph 19.6 mph N/A   Clear
1:35 AM 77.0 °F - 66.2 °F 69% 29.88 in 10.0 mi South 13.8 mph 20.7 mph N/A   Clear
1:55 AM 77.0 °F - 66.2 °F 69% 29.88 in 10.0 mi South 12.7 mph 21.9 mph N/A   Clear
2:15 AM 77.0 °F - 66.2 °F 69% 29.88 in 10.0 mi South 15.0 mph 20.7 mph N/A   Clear
2:35 AM 77.0 °F - 66.2 °F 69% 29.89 in 10.0 mi South 13.8 mph 19.6 mph N/A   Clear
2:55 AM 77.0 °F - 66.2 °F 69% 29.88 in 10.0 mi South 10.4 mph 19.6 mph N/A   Clear
3:15 AM 75.2 °F - 66.2 °F 73% 29.89 in 10.0 mi SSW 10.4 mph - N/A   Clear
3:35 AM 77.0 °F - 64.4 °F 65% 29.90 in 10.0 mi South 12.7 mph 19.6 mph N/A   Clear
3:55 AM 77.0 °F - 64.4 °F 65% 29.90 in 10.0 mi SSW 13.8 mph 18.4 mph N/A   Clear
4:15 AM 77.0 °F - 64.4 °F 65% 29.90 in 10.0 mi SSW 12.7 mph 20.7 mph N/A   Clear
4:35 AM 77.0 °F - 64.4 °F 65% 29.90 in 10.0 mi SSW 8.1 mph 16.1 mph N/A   Clear
4:55 AM 75.2 °F - 64.4 °F 69% 29.91 in 10.0 mi SSW 9.2 mph - N/A   Clear
5:15 AM 73.4 °F - 64.4 °F 73% 29.92 in 10.0 mi SSW 10.4 mph - N/A   Clear
5:35 AM 73.4 °F - 64.4 °F 73% 29.92 in 10.0 mi SSW 9.2 mph - N/A   Clear
5:55 AM 73.4 °F - 64.4 °F 73% 29.93 in 10.0 mi SSW 10.4 mph - N/A   Clear
6:15 AM 73.4 °F - 64.4 °F 73% 29.93 in 10.0 mi SSW 8.1 mph - N/A   Clear
6:35 AM 73.4 °F - 64.4 °F 73% 29.95 in 10.0 mi SSW 10.4 mph - N/A   Clear
6:55 AM 73.4 °F - 64.4 °F 73% 29.95 in 10.0 mi SSW 11.5 mph 18.4 mph N/A   Clear
7:15 AM 73.4 °F - 64.4 °F 73% 29.96 in 10.0 mi SSW 11.5 mph 17.3 mph N/A   Clear
7:35 AM 73.4 °F - 64.4 °F 73% 29.96 in 10.0 mi SSW 12.7 mph 19.6 mph N/A   Clear
7:55 AM 75.2 °F - 64.4 °F 69% 29.96 in 10.0 mi SSW 15.0 mph 20.7 mph N/A   Clear
8:15 AM 77.0 °F - 64.4 °F 65% 29.97 in 10.0 mi SSW 12.7 mph 20.7 mph N/A   Clear
8:35 AM 78.8 °F - 66.2 °F 65% 29.98 in 10.0 mi SSW 9.2 mph 18.4 mph N/A   Clear
8:55 AM 80.6 °F 82.7 °F 66.2 °F 61% 29.97 in 10.0 mi SSW 15.0 mph 21.9 mph N/A   Clear
9:15 AM 80.6 °F 82.7 °F 66.2 °F 61% 29.97 in 10.0 mi SSW 20.7 mph 25.3 mph N/A   Clear
9:35 AM 82.4 °F 84.6 °F 66.2 °F 58% 29.97 in 10.0 mi SSW 13.8 mph 24.2 mph N/A   Clear
9:55 AM 82.4 °F 84.6 °F 66.2 °F 58% 29.97 in 10.0 mi SW 23.0 mph 31.1 mph N/A   Clear
10:15 AM 84.2 °F 86.6 °F 66.2 °F 55% 29.97 in 10.0 mi SW 17.3 mph 23.0 mph N/A   Clear
10:35 AM 86.0 °F 88.2 °F 66.2 °F 51% 29.97 in 10.0 mi SW 12.7 mph 24.2 mph N/A   Clear
10:55 AM 87.8 °F 90.4 °F 66.2 °F 49% 29.97 in 10.0 mi SW 15.0 mph 21.9 mph N/A   Clear
11:15 AM 87.8 °F 89.4 °F 64.4 °F 46% 29.97 in 10.0 mi SW 20.7 mph 27.6 mph N/A   Clear
11:35 AM 89.6 °F 91.1 °F 64.4 °F 43% 29.97 in 10.0 mi SW 16.1 mph 24.2 mph N/A   Clear
11:55 AM 89.6 °F 92.2 °F 66.2 °F 46% 29.96 in 10.0 mi SSW 11.5 mph 26.5 mph N/A   Clear
12:15 PM 91.4 °F 93.2 °F 64.4 °F 41% 29.97 in 10.0 mi SW 13.8 mph 21.9 mph N/A   Clear
12:35 PM 91.4 °F 93.2 °F 64.4 °F 41% 29.97 in 10.0 mi SW 18.4 mph 25.3 mph N/A   Clear
12:55 PM 91.4 °F 93.2 °F 64.4 °F 41% 29.97 in 10.0 mi WSW 17.3 mph 25.3 mph N/A   Clear
1:15 PM 93.2 °F 94.9 °F 64.4 °F 38% 29.96 in 10.0 mi SW 20.7 mph 27.6 mph N/A   Clear
1:35 PM 95.0 °F 97.0 °F 64.4 °F 36% 29.96 in 10.0 mi SW 13.8 mph 27.6 mph N/A   Clear
1:55 PM 95.0 °F 97.0 °F 64.4 °F 36% 29.96 in 10.0 mi SSW 13.8 mph 19.6 mph N/A   Clear
2:15 PM 95.0 °F 97.0 °F 64.4 °F 36% 29.95 in 10.0 mi SSW 15.0 mph 25.3 mph N/A   Clear
2:35 PM 95.0 °F 97.0 °F 64.4 °F 36% 29.94 in 10.0 mi SSW 18.4 mph 24.2 mph N/A   Clear
2:55 PM 95.0 °F 97.0 °F 64.4 °F 36% 29.93 in 10.0 mi SW 16.1 mph 25.3 mph N/A   Clear
3:15 PM 96.8 °F 98.0 °F 62.6 °F 32% 29.93 in 10.0 mi SSW 19.6 mph 28.8 mph N/A   Clear
3:35 PM 96.8 °F 98.0 °F 62.6 °F 32% 29.93 in 10.0 mi SSW 16.1 mph 27.6 mph N/A   Clear
3:55 PM 96.8 °F 98.0 °F 62.6 °F 32% 29.93 in 10.0 mi SW 15.0 mph 24.2 mph N/A   Clear
4:15 PM 96.8 °F 98.0 °F 62.6 °F 32% 29.93 in 10.0 mi SSW 10.4 mph 17.3 mph N/A   Clear
4:35 PM 96.8 °F 98.0 °F 62.6 °F 32% 29.92 in 10.0 mi SW 17.3 mph 21.9 mph N/A   Clear
4:55 PM 96.8 °F 98.0 °F 62.6 °F 32% 29.93 in 10.0 mi SSW 13.8 mph 21.9 mph N/A   Clear
5:15 PM 96.8 °F 97.1 °F 60.8 °F 30% 29.92 in 10.0 mi SSW 9.2 mph - N/A   Clear
5:35 PM 98.6 °F 100.0 °F 62.6 °F 30% 29.92 in 10.0 mi SSW 11.5 mph 16.1 mph N/A   Clear
5:55 PM 96.8 °F 98.0 °F 62.6 °F 32% 29.92 in 10.0 mi SSW 9.2 mph 20.7 mph N/A   Clear
6:15 PM 96.8 °F 98.0 °F 62.6 °F 32% 29.91 in 10.0 mi SSW 17.3 mph 23.0 mph N/A   Clear
6:35 PM 96.8 °F 97.1 °F 60.8 °F 30% 29.91 in 10.0 mi SSW 8.1 mph 17.3 mph N/A   Clear
6:55 PM 96.8 °F 97.1 °F 60.8 °F 30% 29.91 in 10.0 mi SSW 9.2 mph - N/A   Clear
7:15 PM 95.0 °F 95.2 °F 60.8 °F 32% 29.91 in 10.0 mi SSW 11.5 mph 16.1 mph N/A   Clear
7:35 PM 95.0 °F 96.0 °F 62.6 °F 34% 29.92 in 10.0 mi South 12.7 mph 18.4 mph N/A   Clear
7:55 PM 93.2 °F 94.1 °F 62.6 °F 36% 29.92 in 10.0 mi South 10.4 mph - N/A   Clear
8:15 PM 91.4 °F 92.1 °F 62.6 °F 38% 29.93 in 10.0 mi South 9.2 mph - N/A   Clear
8:35 PM 89.6 °F 90.1 °F 62.6 °F 40% 29.93 in 10.0 mi South 10.4 mph - N/A   Clear
8:55 PM 87.8 °F 88.5 °F 62.6 °F 43% 29.93 in 10.0 mi South 8.1 mph - N/A   Clear
9:15 PM 86.0 °F 87.3 °F 64.4 °F 48% 29.93 in 10.0 mi South 9.2 mph - N/A   Clear
9:35 PM 86.0 °F 87.3 °F 64.4 °F 48% 29.94 in 10.0 mi South 8.1 mph - N/A   Clear
9:55 PM 86.0 °F 87.3 °F 64.4 °F 48% 29.95 in 10.0 mi South 6.9 mph - N/A   Clear
10:15 PM 84.2 °F 85.6 °F 64.4 °F 51% 29.96 in 10.0 mi South 8.1 mph - N/A   Clear
10:35 PM 82.4 °F 83.9 °F 64.4 °F 54% 29.97 in 10.0 mi South 6.9 mph - N/A   Clear
10:55 PM 80.6 °F 82.7 °F 66.2 °F 61% 29.97 in 10.0 mi South 6.9 mph - N/A   Clear
11:15 PM 80.6 °F 82.7 °F 66.2 °F 61% 29.97 in 10.0 mi South 6.9 mph - N/A   Clear
11:35 PM 80.6 °F 83.2 °F 68.0 °F 65% 29.98 in 10.0 mi South 6.9 mph - N/A   Clear
11:55 PM 80.6 °F 83.2 °F 68.0 °F 65% 29.98 in 10.0 mi South 8.1 mph - N/A   Clear